KC4JES Weather Reports


time (UTC)temp
F
wind
direction
speed
knots
gust
knots
rain 1hr
in
rain 24hr
in
rain mn
in
humidity
%
barometer
mb
20260505200551 81 291 2.6 3.5 0.00 0.00 0.00 50 1017.0
20260505200048 82 69 0.0 2.6 0.00 0.00 0.00 47 1017.2
20260505195544 82 16 0.9 3.5 0.00 0.00 0.00 47 1016.9
20260505195042 82 104 0.0 5.2 0.00 0.00 0.00 49 1016.8
20260505194538 82 37 0.0 2.6 0.00 0.00 0.00 50 1017.0
20260505194034 82 20 1.7 2.6 0.00 0.00 0.00 47 1017.1
20260505193531 82 347 1.7 2.6 0.00 0.00 0.00 47 1017.4
20260505193028 83 50 0.9 3.5 0.00 0.00 0.00 47 1017.4
20260505192527 83 15 0.9 1.7 0.00 0.00 0.00 46 1017.4
20260505192024 83 32 3.5 3.5 0.00 0.00 0.00 45 1017.3
20260505191522 82 55 0.9 1.7 0.00 0.00 0.00 47 1017.5
20260505191020 82 33 1.7 2.6 0.00 0.00 0.00 44 1017.7
20260505190514 83 59 0.9 4.3 0.00 0.00 0.00 43 1017.7
20260505190011 83 38 2.6 2.6 0.00 0.00 0.00 44 1017.8
20260505185508 82 209 0.0 1.7 0.00 0.00 0.00 45 1017.5
20260505185004 82 28 0.0 3.5 0.00 0.00 0.00 48 1017.7
20260505184501 82 34 0.9 1.7 0.00 0.00 0.00 49 1017.5
20260505183957 82 255 0.0 3.5 0.00 0.00 0.00 48 1017.8
20260505183454 82 45 2.6 2.6 0.00 0.00 0.00 49 1018.0
20260505182951 82 50 0.0 2.6 0.00 0.00 0.00 50 1017.5
20260505182448 81 2 0.9 1.7 0.00 0.00 0.00 47 1017.9
20260505181944 82 18 5.2 5.2 0.00 0.00 0.00 46 1017.8
20260505181442 82 117 0.0 2.6 0.00 0.00 0.00 49 1017.9
20260505180938 82 35 1.7 2.6 0.00 0.00 0.00 48 1018.0
20260505180434 81 62 1.7 2.6 0.00 0.00 0.00 49 1018.1
20260505175931 81 47 1.7 3.5 0.00 0.00 0.00 48 1018.1
20260505175428 82 107 0.0 2.6 0.00 0.00 0.00 52 1018.0
20260505174924 81 30 1.7 1.7 0.00 0.00 0.00 48 1018.0
20260505174422 80 36 1.7 2.6 0.00 0.00 0.00 49 1018.0
20260505173918 80 342 1.7 1.7 0.00 0.00 0.00 51 1018.2
20260505173414 80 337 0.0 2.6 0.00 0.00 0.00 52 1018.1
20260505172911 81 53 3.5 4.3 0.00 0.00 0.00 50 1018.0
20260505172409 80 60 3.5 4.3 0.00 0.00 0.00 50 1018.1
20260505171909 80 74 0.9 2.6 0.00 0.00 0.00 49 1018.3
20260505171406 79 282 0.0 4.3 0.00 0.00 0.00 54 1018.3
20260505170902 80 145 0.0 4.3 0.00 0.00 0.00 51 1018.3
20260505170359 80 14 0.0 1.7 0.00 0.00 0.00 52 1018.5
20260505165854 79 356 0.9 2.6 0.00 0.00 0.00 54 1018.5
20260505165350 79 78 0.0 2.6 0.00 0.00 0.00 55 1018.4
20260505164846 79 50 2.6 4.3 0.00 0.00 0.00 54 1018.4
20260505164343 79 52 3.5 3.5 0.00 0.00 0.00 55 1018.6
20260505163841 80 45 1.7 1.7 0.00 0.00 0.00 55 1018.4
20260505163340 80 57 0.9 1.7 0.00 0.00 0.00 52 1018.6
20260505162838 79 69 0.0 1.7 0.00 0.00 0.00 53 1018.6
20260505162334 78 39 1.7 3.5 0.00 0.00 0.00 55 1018.5
20260505161831 78 40 2.6 2.6 0.00 0.00 0.00 56 1018.6
20260505161328 78 39 1.7 3.5 0.00 0.00 0.00 52 1018.5
20260505160825 79 50 2.6 3.5 0.00 0.00 0.00 56 1018.6
20260505160323 79 253 0.0 2.6 0.00 0.00 0.00 55 1018.7
20260505153302 78 78 0.9 2.6 0.00 0.00 0.00 56 1018.2
20260505152800 78 38 2.6 3.5 0.00 0.00 0.00 53 1018.4
20260505152256 77 117 0.9 5.2 0.00 0.00 0.00 55 1018.5
20260505151755 78 353 0.9 3.5 0.00 0.00 0.00 53 1018.5
20260505151253 78 293 0.9 2.6 0.00 0.00 0.00 55 1018.3
20260505150750 78 29 1.7 3.5 0.00 0.00 0.00 53 1018.4
20260505150248 78 69 0.0 2.6 0.00 0.00 0.00 55 1018.5
20260505140217 76 278 0.0 1.7 0.00 0.00 0.00 60 1018.3
20260505130141 70 269 0.0 0.9 0.00 0.00 0.00 76 1017.8
20260505124631 66 50 0.0 0.0 0.00 0.00 0.00 93 1017.8
20260505124127 66 50 0.0 0.0 0.00 0.00 0.00 96 1017.7
20260505123623 65 252 0.0 0.0 0.00 0.00 0.00 96 1017.7
20260505123120 64 304 0.0 0.0 0.00 0.00 0.00 97 1017.8
20260505122617 63 294 0.0 0.0 0.00 0.00 0.00 97 1017.6
20260505122114 62 294 0.0 0.0 0.00 0.00 0.00 97 1017.7
20260505121610 62 269 0.0 0.0 0.00 0.00 0.00 97 1017.6
20260505121107 61 269 0.0 0.0 0.00 0.00 0.00 97 1017.5
20260505120604 60 50 0.0 0.0 0.00 0.00 0.00 97 1017.4
20260505120100 60 50 0.0 0.0 0.00 0.00 0.00 97 1017.3
20260505115554 59 50 0.0 0.0 0.00 0.00 0.00 97 1017.2
20260505115052 59 50 0.0 0.0 0.00 0.00 0.00 97 1017.5
20260505114549 59 50 0.0 0.0 0.00 0.00 0.00 97 1017.4
20260505114045 58 32 0.0 0.0 0.00 0.00 0.00 97 1017.4
20260505113541 58 32 0.0 0.0 0.00 0.00 0.00 97 1017.3
20260505113038 58 32 0.0 0.0 0.00 0.00 0.00 97 1017.2
20260505112535 58 22 0.0 0.0 0.00 0.00 0.00 97 1017.3
20260505112033 57 6 0.0 0.0 0.00 0.00 0.00 97 1017.2
20260505111532 57 40 0.0 0.0 0.00 0.00 0.00 97 1017.1
20260505111028 57 67 0.0 0.0 0.00 0.00 0.00 97 1017.1
20260505110525 57 69 0.0 0.0 0.00 0.00 0.00 96 1017.1
20260505101958 57 55 0.0 0.9 0.00 0.00 0.00 96 1016.6
20260505101455 57 50 0.0 0.0 0.00 0.00 0.00 96 1016.5
20260505100952 57 25 0.0 0.9 0.00 0.00 0.00 96 1016.4
20260505100449 57 22 0.0 0.0 0.00 0.00 0.00 95 1016.4
20260505095945 57 37 0.0 0.0 0.00 0.00 0.00 95 1016.5
20260505095442 57 50 0.0 0.0 0.00 0.00 0.00 95 1016.5
20260505094938 58 50 0.0 0.0 0.00 0.00 0.00 95 1016.5
20260505094435 58 50 0.0 0.0 0.00 0.00 0.00 95 1016.3
20260505093931 58 50 0.0 0.0 0.00 0.00 0.00 95 1016.4
20260505093428 58 50 0.0 0.0 0.00 0.00 0.00 95 1016.1
20260505092925 58 50 0.0 0.0 0.00 0.00 0.00 95 1016.2
20260505092423 58 32 0.0 0.0 0.00 0.00 0.00 94 1016.1
20260505091920 58 74 0.0 0.0 0.00 0.00 0.00 94 1016.3
20260505091418 58 60 0.0 0.0 0.00 0.00 0.00 94 1016.1
20260505090916 58 309 0.0 0.0 0.00 0.00 0.00 94 1016.2
20260505090414 58 55 0.0 0.0 0.00 0.00 0.00 94 1016.1
20260505085911 58 48 0.0 0.0 0.00 0.00 0.00 93 1016.3
20260505085409 58 55 0.0 0.0 0.00 0.00 0.00 93 1016.3
20260505084906 58 309 0.0 0.0 0.00 0.00 0.00 93 1016.2
20260505084404 58 309 0.0 0.0 0.00 0.00 0.00 93 1016.0
20260505083902 58 13 0.0 0.0 0.00 0.00 0.00 93 1016.1
20260505083359 58 66 0.0 0.0 0.00 0.00 0.00 93 1016.2
20260505082855 58 37 0.0 0.0 0.00 0.00 0.00 93 1016.1
20260505082351 58 37 0.0 0.0 0.00 0.00 0.00 92 1015.9
20260505081848 58 37 0.0 0.0 0.00 0.00 0.00 92 1015.7
20260505081345 58 57 0.0 0.0 0.00 0.00 0.00 91 1015.9
20260505080842 58 283 0.0 0.0 0.00 0.00 0.00 91 1016.0
20260505080338 59 37 0.0 0.0 0.00 0.00 0.00 91 1016.2
20260505075833 59 37 0.0 0.0 0.00 0.00 0.00 91 1016.1
20260505075330 59 37 0.0 0.0 0.00 0.00 0.00 91 1016.1
20260505074828 59 37 0.0 0.0 0.00 0.00 0.00 91 1016.1
20260505074325 59 37 0.0 0.0 0.00 0.00 0.00 90 1016.3
20260505073822 59 37 0.0 0.0 0.00 0.00 0.00 90 1016.3
20260505073320 59 37 0.0 0.0 0.00 0.00 0.00 90 1016.4
20260505072817 59 37 0.0 0.0 0.00 0.00 0.00 90 1016.1
20260505072313 59 37 0.0 0.0 0.00 0.00 0.00 89 1016.2
20260505071809 60 37 0.0 0.0 0.00 0.00 0.00 89 1016.5
20260505071306 60 249 0.0 0.0 0.00 0.00 0.00 89 1016.5
20260505070804 60 55 0.0 0.0 0.00 0.00 0.00 89 1016.3
20260505070300 60 55 0.0 0.0 0.00 0.00 0.00 89 1016.4
20260505065755 60 269 0.0 0.0 0.00 0.00 0.00 88 1016.5
20260505065252 60 269 0.0 0.0 0.00 0.00 0.00 88 1016.2
20260505064749 60 269 0.0 0.0 0.00 0.00 0.00 87 1016.2
20260505064246 61 269 0.0 0.0 0.00 0.00 0.00 87 1016.3
20260505063744 61 269 0.0 0.0 0.00 0.00 0.00 87 1016.3
20260505063240 61 269 0.0 0.0 0.00 0.00 0.00 86 1016.3
20260505062736 61 269 0.0 0.0 0.00 0.00 0.00 84 1016.7
20260505062234 61 37 0.0 0.0 0.00 0.00 0.00 84 1016.7
20260505061731 62 217 0.0 0.0 0.00 0.00 0.00 84 1016.7
20260505061229 62 217 0.0 0.0 0.00 0.00 0.00 84 1016.8
20260505060726 62 217 0.0 0.0 0.00 0.00 0.00 84 1016.7
20260505060223 62 217 0.0 0.0 0.00 0.00 0.00 84 1016.7
20260505055718 62 322 0.0 0.0 0.00 0.00 0.00 83 1016.8
20260505055215 63 322 0.0 0.0 0.00 0.00 0.00 82 1016.7
20260505054712 63 322 0.0 0.0 0.00 0.00 0.00 81 1016.8
20260505054210 63 230 0.0 0.0 0.00 0.00 0.00 80 1017.0
20260505053708 64 235 0.0 0.0 0.00 0.00 0.00 80 1016.9
20260505053204 64 229 0.0 0.0 0.00 0.00 0.00 77 1017.1
20260505052701 64 309 0.0 0.0 0.00 0.00 0.00 76 1017.3
20260505052158 65 309 0.0 0.0 0.00 0.00 0.00 77 1017.5
20260505051655 66 309 0.0 0.0 0.00 0.00 0.00 74 1017.4
20260505051154 66 229 0.0 0.0 0.00 0.00 0.00 74 1017.4
20260505050651 67 129 0.0 0.0 0.00 0.00 0.00 73 1017.6
20260505050149 68 129 0.0 0.0 0.00 0.00 0.00 66 1017.3
20260505041619 68 66 0.0 0.0 0.00 0.00 0.00 67 1017.8
20260505041116 68 66 0.0 0.9 0.00 0.00 0.00 67 1017.6
20260505040613 69 69 0.0 0.0 0.00 0.00 0.00 65 1017.5
20260505040110 69 76 0.0 0.0 0.00 0.00 0.00 65 1017.7
20260505035606 69 34 0.9 2.6 0.00 0.00 0.00 65 1017.7
20260505035103 68 89 0.0 0.0 0.00 0.00 0.00 66 1017.5
20260505034559 69 89 0.0 1.7 0.00 0.00 0.00 65 1017.5
20260505034056 69 260 0.0 0.0 0.00 0.00 0.00 66 1017.5
20260505033553 69 72 0.9 1.7 0.00 0.00 0.00 66 1017.8
20260505033052 69 230 0.0 0.0 0.00 0.00 0.00 66 1017.7
20260505032549 69 347 0.0 1.7 0.00 0.00 0.00 65 1017.7
20260505032045 69 129 0.0 0.0 0.00 0.00 0.00 65 1017.9
20260505031543 69 74 0.0 0.9 0.00 0.00 0.00 65 1017.6
20260505031039 69 80 0.0 2.6 0.00 0.00 0.00 64 1017.7
20260505030536 69 129 0.0 1.7 0.00 0.00 0.00 64 1017.9
20260505030032 69 59 0.9 1.7 0.00 0.00 0.00 64 1017.9
20260505025528 69 60 0.0 1.7 0.00 0.00 0.00 64 1017.7
20260505025027 69 32 0.0 1.7 0.00 0.00 0.00 64 1017.5
20260505024524 69 45 2.6 3.5 0.00 0.00 0.00 64 1017.9
20260505024021 69 48 0.0 1.7 0.00 0.00 0.00 64 1017.6
20260505023518 69 103 0.0 0.9 0.00 0.00 0.00 64 1017.9
20260505023015 69 344 0.0 0.9 0.00 0.00 0.00 65 1017.8
20260505022513 69 16 0.0 1.7 0.00 0.00 0.00 65 1017.9
20260505022010 69 50 0.0 1.7 0.00 0.00 0.00 65 1017.7
20260505021506 69 49 1.7 1.7 0.00 0.00 0.00 65 1017.8
20260505021003 69 47 0.0 0.9 0.00 0.00 0.00 65 1017.6
20260505020457 69 69 1.7 1.7 0.00 0.00 0.00 65 1017.7
20260505015954 69 29 0.0 1.7 0.00 0.00 0.00 66 1017.7
20260505015452 69 113 0.0 0.9 0.00 0.00 0.00 66 1017.9
20260505014949 69 89 0.0 1.7 0.00 0.00 0.00 66 1017.8
20260505014445 69 49 0.0 1.7 0.00 0.00 0.00 66 1017.7
20260505013943 69 145 0.0 1.7 0.00 0.00 0.00 66 1017.7
20260505013440 69 89 0.0 0.0 0.00 0.00 0.00 65 1017.5
20260505012937 69 70 0.0 1.7 0.00 0.00 0.00 65 1017.8
20260505012435 69 89 0.0 1.7 0.00 0.00 0.00 66 1017.6
20260505011931 69 89 0.0 1.7 0.00 0.00 0.00 66 1017.7
20260505011428 69 36 0.9 1.7 0.00 0.00 0.00 67 1017.3
20260505010925 69 56 0.9 1.7 0.00 0.00 0.00 66 1017.5
20260505010420 69 229 0.0 0.0 0.00 0.00 0.00 66 1017.3
20260505005916 69 37 0.0 0.0 0.00 0.00 0.00 66 1017.4
20260505005414 69 69 0.0 0.0 0.00 0.00 0.00 66 1017.4
20260505004911 70 44 0.0 0.9 0.00 0.00 0.00 66 1017.2
20260505004407 70 230 0.0 0.9 0.00 0.00 0.00 65 1017.2
20260505003904 70 39 1.7 1.7 0.00 0.00 0.00 65 1017.3
20260505003401 70 73 0.0 1.7 0.00 0.00 0.00 65 1017.2
20260505002857 70 77 0.0 0.9 0.00 0.00 0.00 65 1017.2
20260505002354 70 89 0.0 1.7 0.00 0.00 0.00 65 1017.3
20260505001853 70 74 0.0 1.7 0.00 0.00 0.00 64 1017.4
20260505001349 70 44 0.0 1.7 0.00 0.00 0.00 64 1017.3
20260505000847 71 26 0.9 2.6 0.00 0.00 0.00 63 1017.3
20260505000344 71 45 0.9 2.6 0.00 0.00 0.00 63 1017.1
20260504235841 71 54 0.0 1.7 0.00 0.00 0.00 62 1017.0
20260504235338 71 232 0.0 1.7 0.00 0.00 0.00 62 1017.1
20260504234834 71 57 0.9 1.7 0.00 0.00 0.00 63 1017.0
20260504234332 71 336 0.0 0.9 0.00 0.00 0.00 62 1016.9
20260504233829 72 41 1.7 1.7 0.00 0.00 0.00 62 1017.1
20260504233324 72 89 0.0 3.5 0.00 0.00 0.00 63 1016.8
20260504232821 72 12 0.9 1.7 0.00 0.00 0.00 61 1016.7
20260504232319 72 18 1.7 4.3 0.00 0.00 0.00 61 1016.6
20260504231815 72 33 1.7 2.6 0.00 0.00 0.00 61 1016.5
20260504231312 72 66 2.6 2.6 0.00 0.00 0.00 62 1016.6
20260504230808 73 44 0.0 1.7 0.00 0.00 0.00 61 1016.6
20260504230306 73 30 0.9 3.5 0.00 0.00 0.00 60 1016.6
20260504225805 73 56 0.0 2.6 0.00 0.00 0.00 61 1016.5
20260504225301 73 5 0.0 2.6 0.00 0.00 0.00 60 1016.8
20260504224758 73 50 4.3 4.3 0.00 0.00 0.00 59 1016.7
20260504224255 73 67 0.9 3.5 0.00 0.00 0.00 59 1016.9
20260504223751 73 63 0.0 1.7 0.00 0.00 0.00 61 1016.8
20260504223247 73 121 0.0 4.3 0.00 0.00 0.00 60 1016.9
20260504222744 74 132 0.0 1.7 0.00 0.00 0.00 60 1017.1
20260504222241 74 38 1.7 4.3 0.00 0.00 0.00 58 1017.1
20260504221739 75 57 0.9 2.6 0.00 0.00 0.00 57 1017.0
20260504221235 74 193 0.0 1.7 0.00 0.00 0.00 59 1017.1
20260504220732 74 81 0.0 1.7 0.00 0.00 0.00 59 1016.9
20260504220229 74 61 1.7 1.7 0.00 0.00 0.00 58 1016.9
20260504215726 74 38 0.9 2.6 0.00 0.00 0.00 59 1016.8
20260504215223 75 59 0.0 4.3 0.00 0.00 0.00 56 1016.8
20260504214719 75 37 1.7 3.5 0.00 0.00 0.00 58 1016.8
20260504214215 74 55 0.9 2.6 0.00 0.00 0.00 57 1016.7
20260504213712 76 38 6.1 6.1 0.00 0.00 0.00 54 1016.9
20260504213208 77 15 0.9 3.5 0.00 0.00 0.00 53 1017.0
20260504212706 76 9 0.0 3.5 0.00 0.00 0.00 56 1017.0
20260504212202 76 62 0.9 2.6 0.00 0.00 0.00 55 1017.2
20260504211700 77 48 2.6 4.3 0.00 0.00 0.00 53 1017.0
20260504211155 76 53 2.6 3.5 0.00 0.00 0.00 55 1016.8